Location: Kam�li
(14.6864°N, 3.1482°W)
Time: 00:28:03
(UTC+00:00)

Okean-O - Pass Details

Date: 29 October 2020
Orbit: 638 x 641 km, 98.2° (Epoch: 02 December)

Event Time Altitude Azimuth Distance (km) Brightness Sun altitude
Rises 19:27:13 0° 182° (S) 2,933 6.2 -25.1°
Reaches altitude 10° 19:29:30 10° 189° (S) 2,025 5.4 -25.6°
Maximum altitude 19:33:40 41° 259° (W) 923 3.8 -26.6°
Drops below altitude 10° 19:37:50 10° 330° (NNW) 2,027 5.4 -27.6°
Sets 19:40:08 0° 337° (NNW) 2,937 6.2 -28.1°
